| time (UTC) | temp C | wind direction | speed KPH | gust KPH | rain 1hr cm | rain 24hr cm | rain mn cm | humidity % | barometer mb |
| 20260904060512 | 27 | 120 | 3.2 | 8.0 | 0.00 | 0.00 | 0.00 | 60 | 1015.5 |
| 20260904060038 | 27 | 120 | 4.8 | 8.0 | 0.00 | 0.00 | 0.00 | 60 | 1015.5 |
| 20260904055518 | 27 | 121 | 4.8 | 9.7 | 0.00 | 0.00 | 0.00 | 60 | 1015.5 |
| 20260904055012 | 27 | 121 | 4.8 | 9.7 | 0.00 | 0.00 | 0.00 | 60 | 1015.5 |
| 20260904054526 | 27 | 129 | 4.8 | 9.7 | 0.00 | 0.00 | 0.00 | 59 | 1015.4 |
| 20260904054019 | 27 | 137 | 3.2 | 9.7 | 0.00 | 0.00 | 0.00 | 59 | 1015.5 |
| 20260904053517 | 27 | 150 | 4.8 | 9.7 | 0.00 | 0.00 | 0.00 | 59 | 1015.4 |
| 20260904053012 | 27 | 154 | 4.8 | 12.9 | 0.00 | 0.00 | 0.00 | 58 | 1015.4 |
| 20260904052526 | 28 | 128 | 8.0 | 14.5 | 0.00 | 0.00 | 0.00 | 58 | 1015.4 |
| 20260904052020 | 28 | 122 | 6.4 | 14.5 | 0.00 | 0.00 | 0.00 | 57 | 1015.4 |
| 20260904051514 | 28 | 115 | 8.0 | 14.5 | 0.00 | 0.00 | 0.00 | 57 | 1015.3 |
| 20260904051029 | 28 | 124 | 8.0 | 14.5 | 0.00 | 0.00 | 0.00 | 57 | 1015.3 |
| 20260904050524 | 28 | 121 | 8.0 | 12.9 | 0.00 | 0.00 | 0.00 | 57 | 1015.4 |
| 20260904050032 | 28 | 119 | 8.0 | 14.5 | 0.00 | 0.00 | 0.00 | 56 | 1015.4 |
| 20260904045516 | 28 | 90 | 6.4 | 14.5 | 0.00 | 0.00 | 0.00 | 56 | 1015.5 |
| 20260904045030 | 28 | 101 | 4.8 | 11.3 | 0.00 | 0.00 | 0.00 | 56 | 1015.5 |
| 20260904044524 | 28 | 80 | 4.8 | 16.1 | 0.00 | 0.00 | 0.00 | 57 | 1015.5 |
| 20260904044018 | 28 | 133 | 11.3 | 16.1 | 0.00 | 0.00 | 0.00 | 56 | 1015.6 |
| 20260904043513 | 28 | 95 | 4.8 | 14.5 | 0.00 | 0.00 | 0.00 | 57 | 1015.8 |
| 20260904043019 | 28 | 116 | 8.0 | 14.5 | 0.00 | 0.00 | 0.00 | 56 | 1015.5 |
| 20260904042513 | 28 | 96 | 8.0 | 14.5 | 0.00 | 0.00 | 0.00 | 56 | 1015.5 |
| 20260904042012 | 28 | 103 | 8.0 | 12.9 | 0.00 | 0.00 | 0.00 | 56 | 1015.6 |
| 20260904041526 | 28 | 98 | 6.4 | 12.9 | 0.00 | 0.00 | 0.00 | 56 | 1015.6 |
| 20260904041020 | 28 | 97 | 8.0 | 14.5 | 0.00 | 0.00 | 0.00 | 57 | 1015.6 |
| 20260904040515 | 28 | 90 | 6.4 | 12.9 | 0.00 | 0.00 | 0.00 | 58 | 1015.4 |
| 20260904040040 | 28 | 86 | 6.4 | 16.1 | 0.00 | 0.00 | 0.00 | 58 | 1015.5 |
| 20260904035524 | 28 | 108 | 9.7 | 16.1 | 0.00 | 0.00 | 0.00 | 58 | 1015.4 |
| 20260904035018 | 28 | 105 | 6.4 | 16.1 | 0.00 | 0.00 | 0.00 | 58 | 1015.3 |
| 20260904034513 | 28 | 113 | 8.0 | 14.5 | 0.00 | 0.00 | 0.00 | 58 | 1015.3 |
| 20260904034012 | 28 | 113 | 8.0 | 14.5 | 0.00 | 0.00 | 0.00 | 58 | 1015.2 |
| 20260904033527 | 28 | 91 | 4.8 | 14.5 | 0.00 | 0.00 | 0.00 | 57 | 1015.1 |
| 20260904033024 | 28 | 83 | 8.0 | 14.5 | 0.00 | 0.00 | 0.00 | 57 | 1015.1 |
| 20260904032019 | 28 | 82 | 6.4 | 11.3 | 0.00 | 0.00 | 0.00 | 56 | 1015.0 |
| 20260904031515 | 28 | 92 | 6.4 | 11.3 | 0.00 | 0.00 | 0.00 | 56 | 1014.8 |
| 20260904031031 | 29 | 129 | 3.2 | 9.7 | 0.00 | 0.00 | 0.00 | 56 | 1014.6 |
| 20260904030527 | 29 | 134 | 1.6 | 12.9 | 0.00 | 0.00 | 0.00 | 56 | 1014.5 |
| 20260904030040 | 29 | 111 | 4.8 | 12.9 | 0.00 | 0.00 | 0.00 | 57 | 1014.5 |
| 20260904025521 | 29 | 116 | 8.0 | 14.5 | 0.00 | 0.00 | 0.00 | 57 | 1014.5 |
| 20260904025017 | 29 | 175 | 6.4 | 14.5 | 0.00 | 0.00 | 0.00 | 56 | 1014.6 |
| 20260904024533 | 29 | 140 | 4.8 | 12.9 | 0.00 | 0.00 | 0.00 | 57 | 1014.4 |
| 20260904024029 | 29 | 188 | 6.4 | 17.7 | 0.00 | 0.00 | 0.00 | 56 | 1014.3 |
| 20260904023525 | 29 | 107 | 8.0 | 16.1 | 0.00 | 0.00 | 0.00 | 56 | 1014.2 |
| 20260904023021 | 29 | 140 | 6.4 | 14.5 | 0.00 | 0.00 | 0.00 | 55 | 1014.1 |
| 20260904022522 | 29 | 110 | 8.0 | 14.5 | 0.00 | 0.00 | 0.00 | 55 | 1014.1 |
| 20260904022018 | 29 | 117 | 9.7 | 14.5 | 0.00 | 0.00 | 0.00 | 54 | 1014.2 |
| 20260904021514 | 29 | 128 | 6.4 | 12.9 | 0.00 | 0.00 | 0.00 | 54 | 1014.1 |
| 20260904021031 | 30 | 130 | 6.4 | 12.9 | 0.00 | 0.00 | 0.00 | 54 | 1014.0 |
| 20260904020526 | 30 | 119 | 8.0 | 14.5 | 0.00 | 0.00 | 0.00 | 53 | 1014.0 |
| 20260904020033 | 30 | 151 | 4.8 | 14.5 | 0.00 | 0.00 | 0.00 | 53 | 1014.0 |
| 20260904015515 | 30 | 138 | 6.4 | 14.5 | 0.00 | 0.00 | 0.00 | 53 | 1013.9 |
| 20260904015015 | 30 | 142 | 6.4 | 14.5 | 0.00 | 0.00 | 0.00 | 52 | 1013.8 |
| 20260904014531 | 30 | 201 | 6.4 | 17.7 | 0.00 | 0.00 | 0.00 | 50 | 1013.6 |
| 20260904014027 | 30 | 133 | 6.4 | 14.5 | 0.00 | 0.00 | 0.00 | 50 | 1013.5 |
| 20260904013523 | 30 | 149 | 6.4 | 20.9 | 0.00 | 0.00 | 0.00 | 51 | 1013.6 |
| 20260904013019 | 30 | 181 | 8.0 | 25.7 | 0.00 | 0.00 | 0.00 | 51 | 1013.5 |
| 20260904012515 | 30 | 123 | 14.5 | 25.7 | 0.00 | 0.00 | 0.00 | 50 | 1013.6 |
| 20260904012031 | 31 | 141 | 9.7 | 20.9 | 0.00 | 0.00 | 0.00 | 46 | 1013.6 |
| 20260904011531 | 31 | 190 | 8.0 | 16.1 | 0.00 | 0.00 | 0.00 | 46 | 1013.4 |
| 20260904011027 | 31 | 159 | 4.8 | 16.1 | 0.00 | 0.00 | 0.00 | 46 | 1013.3 |
| 20260904010523 | 31 | 148 | 6.4 | 14.5 | 0.00 | 0.00 | 0.00 | 46 | 1013.2 |
| 20260904010030 | 31 | 174 | 6.4 | 14.5 | 0.00 | 0.00 | 0.00 | 45 | 1013.3 |
| 20260904005532 | 31 | 217 | 4.8 | 11.3 | 0.00 | 0.00 | 0.00 | 46 | 1013.3 |
| 20260904005028 | 31 | 235 | 6.4 | 11.3 | 0.00 | 0.00 | 0.00 | 46 | 1013.4 |
| 20260904004524 | 31 | 155 | 6.4 | 14.5 | 0.00 | 0.00 | 0.00 | 46 | 1013.4 |
| 20260904004024 | 31 | 135 | 8.0 | 17.7 | 0.00 | 0.00 | 0.00 | 47 | 1013.5 |
| 20260904003520 | 32 | 138 | 4.8 | 17.7 | 0.00 | 0.00 | 0.00 | 47 | 1013.4 |
| 20260904003016 | 32 | 196 | 6.4 | 16.1 | 0.00 | 0.00 | 0.00 | 47 | 1013.5 |
| 20260904002531 | 32 | 204 | 6.4 | 22.5 | 0.00 | 0.00 | 0.00 | 46 | 1013.4 |
| 20260904002027 | 32 | 215 | 11.3 | 22.5 | 0.00 | 0.00 | 0.00 | 46 | 1013.3 |
| 20260904001523 | 32 | 185 | 8.0 | 17.7 | 0.00 | 0.00 | 0.00 | 45 | 1013.2 |
| 20260904001019 | 32 | 135 | 6.4 | 17.7 | 0.00 | 0.00 | 0.00 | 44 | 1013.2 |
| 20260904000519 | 32 | 134 | 9.7 | 17.7 | 0.00 | 0.00 | 0.00 | 42 | 1013.2 |
| 20260904000028 | 33 | 110 | 6.4 | 17.7 | 0.00 | 0.00 | 0.00 | 43 | 1013.2 |
| 20260903235529 | 33 | 112 | 6.4 | 14.5 | 0.00 | 0.00 | 0.00 | 44 | 1013.3 |
| 20260903235025 | 32 | 225 | 8.0 | 14.5 | 0.00 | 0.00 | 0.00 | 46 | 1013.2 |
| 20260903234521 | 32 | 85 | 8.0 | 17.7 | 0.00 | 0.00 | 0.00 | 47 | 1013.4 |
| 20260903234017 | 32 | 60 | 9.7 | 17.7 | 0.00 | 0.00 | 0.00 | 48 | 1013.4 |
| 20260903233513 | 32 | 48 | 9.7 | 16.1 | 0.00 | 0.00 | 0.00 | 46 | 1013.4 |
| 20260903233013 | 32 | 49 | 8.0 | 16.1 | 0.00 | 0.00 | 0.00 | 46 | 1013.5 |
| 20260903232529 | 32 | 85 | 4.8 | 19.3 | 0.00 | 0.00 | 0.00 | 45 | 1013.5 |
| 20260903232025 | 32 | 120 | 12.9 | 16.1 | 0.00 | 0.00 | 0.00 | 45 | 1013.5 |
| 20260903231521 | 32 | 121 | 11.3 | 16.1 | 0.00 | 0.00 | 0.00 | 45 | 1013.6 |
| 20260903231017 | 32 | 137 | 8.0 | 14.5 | 0.00 | 0.00 | 0.00 | 46 | 1013.5 |
| 20260903230513 | 32 | 54 | 6.4 | 14.5 | 0.00 | 0.00 | 0.00 | 47 | 1013.6 |
| 20260903230040 | 32 | 69 | 3.2 | 11.3 | 0.00 | 0.00 | 0.00 | 44 | 1013.4 |
| 20260903225523 | 32 | 66 | 6.4 | 11.3 | 0.00 | 0.00 | 0.00 | 44 | 1013.5 |
| 20260903225023 | 33 | 67 | 6.4 | 14.5 | 0.00 | 0.00 | 0.00 | 43 | 1013.5 |
| 20260903224519 | 33 | 85 | 8.0 | 14.5 | 0.00 | 0.00 | 0.00 | 43 | 1013.4 |
| 20260903224015 | 33 | 29 | 4.8 | 9.7 | 0.00 | 0.00 | 0.00 | 43 | 1013.5 |
| 20260903223531 | 33 | 29 | 4.8 | 9.7 | 0.00 | 0.00 | 0.00 | 42 | 1013.6 |
| 20260903223027 | 32 | 323 | 3.2 | 9.7 | 0.00 | 0.00 | 0.00 | 45 | 1013.5 |
| 20260903222523 | 32 | 316 | 4.8 | 9.7 | 0.00 | 0.00 | 0.00 | 43 | 1013.6 |
| 20260903222019 | 32 | 291 | 1.6 | 6.4 | 0.00 | 0.00 | 0.00 | 44 | 1013.5 |
| 20260903221518 | 33 | 290 | 3.2 | 11.3 | 0.00 | 0.00 | 0.00 | 43 | 1013.8 |
| 20260903221033 | 33 | 24 | 3.2 | 8.0 | 0.00 | 0.00 | 0.00 | 44 | 1013.8 |
| 20260903220528 | 33 | 27 | 3.2 | 8.0 | 0.00 | 0.00 | 0.00 | 44 | 1013.9 |
| 20260903220037 | 33 | 31 | 1.6 | 8.0 | 0.00 | 0.00 | 0.00 | 43 | 1014.0 |
| 20260903215518 | 33 | 31 | 1.6 | 8.0 | 0.00 | 0.00 | 0.00 | 43 | 1013.9 |
| 20260903215014 | 33 | 33 | 3.2 | 8.0 | 0.00 | 0.00 | 0.00 | 44 | 1013.9 |
| 20260903214530 | 33 | 33 | 3.2 | 11.3 | 0.00 | 0.00 | 0.00 | 43 | 1014.1 |
| 20260903214030 | 33 | 296 | 4.8 | 12.9 | 0.00 | 0.00 | 0.00 | 43 | 1014.1 |
| 20260903213525 | 33 | 296 | 4.8 | 12.9 | 0.00 | 0.00 | 0.00 | 42 | 1014.2 |
| 20260903213021 | 33 | 312 | 4.8 | 11.3 | 0.00 | 0.00 | 0.00 | 43 | 1014.1 |
| 20260903212517 | 33 | 5 | 3.2 | 11.3 | 0.00 | 0.00 | 0.00 | 44 | 1014.0 |
| 20260903212013 | 33 | 5 | 1.6 | 9.7 | 0.00 | 0.00 | 0.00 | 43 | 1014.2 |
| 20260903211529 | 33 | 356 | 4.8 | 9.7 | 0.00 | 0.00 | 0.00 | 44 | 1014.1 |
| 20260903211026 | 32 | 330 | 4.8 | 12.9 | 0.00 | 0.00 | 0.00 | 45 | 1014.3 |
| 20260903210526 | 33 | 269 | 3.2 | 12.9 | 0.00 | 0.00 | 0.00 | 43 | 1014.2 |
| 20260903210033 | 34 | 288 | 3.2 | 12.9 | 0.00 | 0.00 | 0.00 | 42 | 1014.2 |
| 20260903205515 | 33 | 330 | 1.6 | 4.8 | 0.00 | 0.00 | 0.00 | 43 | 1014.4 |
| 20260903205029 | 32 | 330 | 3.2 | 8.0 | 0.00 | 0.00 | 0.00 | 44 | 1014.5 |
| 20260903204525 | 32 | 329 | 1.6 | 9.7 | 0.00 | 0.00 | 0.00 | 45 | 1014.8 |
| 20260903204021 | 33 | 329 | 1.6 | 9.7 | 0.00 | 0.00 | 0.00 | 43 | 1014.8 |
| 20260903203517 | 33 | 329 | 3.2 | 8.0 | 0.00 | 0.00 | 0.00 | 44 | 1014.7 |
| 20260903203017 | 33 | 329 | 4.8 | 8.0 | 0.00 | 0.00 | 0.00 | 43 | 1014.9 |
| 20260903202513 | 32 | 325 | 4.8 | 8.0 | 0.00 | 0.00 | 0.00 | 43 | 1014.9 |
| 20260903202029 | 32 | 312 | 4.8 | 8.0 | 0.00 | 0.00 | 0.00 | 44 | 1015.0 |
| 20260903201525 | 33 | 259 | 3.2 | 6.4 | 0.00 | 0.00 | 0.00 | 43 | 1015.2 |
| 20260903201021 | 32 | 257 | 1.6 | 6.4 | 0.00 | 0.00 | 0.00 | 44 | 1015.2 |
| 20260903200517 | 32 | 224 | 3.2 | 8.0 | 0.00 | 0.00 | 0.00 | 46 | 1015.3 |
| 20260903200045 | 32 | 224 | 3.2 | 8.0 | 0.00 | 0.00 | 0.00 | 45 | 1015.4 |
| 20260903195527 | 32 | 121 | 4.8 | 9.7 | 0.00 | 0.00 | 0.00 | 45 | 1015.5 |
| 20260903195027 | 32 | 116 | 6.4 | 9.7 | 0.00 | 0.00 | 0.00 | 45 | 1015.5 |
| 20260903194523 | 31 | 79 | 3.2 | 14.5 | 0.00 | 0.00 | 0.00 | 47 | 1015.7 |
| 20260903194019 | 31 | 79 | 4.8 | 14.5 | 0.00 | 0.00 | 0.00 | 47 | 1015.9 |
| 20260903193515 | 31 | 106 | 6.4 | 12.9 | 0.00 | 0.00 | 0.00 | 47 | 1015.9 |
| 20260903193031 | 31 | 102 | 6.4 | 12.9 | 0.00 | 0.00 | 0.00 | 46 | 1015.9 |
| 20260903192527 | 32 | 148 | 4.8 | 12.9 | 0.00 | 0.00 | 0.00 | 46 | 1016.0 |
| 20260903192023 | 32 | 96 | 4.8 | 11.3 | 0.00 | 0.00 | 0.00 | 46 | 1016.1 |
| 20260903191523 | 31 | 88 | 4.8 | 11.3 | 0.00 | 0.00 | 0.00 | 46 | 1016.2 |
| 20260903191019 | 32 | 71 | 1.6 | 6.4 | 0.00 | 0.00 | 0.00 | 46 | 1016.3 |
| 20260903190515 | 32 | 256 | 3.2 | 6.4 | 0.00 | 0.00 | 0.00 | 45 | 1016.3 |
| 20260903190042 | 32 | 256 | 3.2 | 6.4 | 0.00 | 0.00 | 0.00 | 47 | 1016.4 |
| 20260903185524 | 32 | 233 | 1.6 | 8.0 | 0.00 | 0.00 | 0.00 | 47 | 1016.5 |
| 20260903185020 | 32 | 233 | 1.6 | 8.0 | 0.00 | 0.00 | 0.00 | 47 | 1016.7 |
| 20260903184516 | 31 | 233 | 3.2 | 8.0 | 0.00 | 0.00 | 0.00 | 49 | 1016.9 |
| 20260903184016 | 31 | 220 | 3.2 | 9.7 | 0.00 | 0.00 | 0.00 | 50 | 1016.8 |
| 20260903183532 | 31 | 218 | 6.4 | 14.5 | 0.00 | 0.00 | 0.00 | 49 | 1017.0 |
| 20260903183028 | 30 | 93 | 4.8 | 14.5 | 0.00 | 0.00 | 0.00 | 52 | 1017.1 |
| 20260903182524 | 30 | 106 | 6.4 | 12.9 | 0.00 | 0.00 | 0.00 | 50 | 1017.2 |
| 20260903182020 | 30 | 116 | 4.8 | 12.9 | 0.00 | 0.00 | 0.00 | 49 | 1017.3 |
| 20260903181516 | 31 | 220 | 3.2 | 8.0 | 0.00 | 0.00 | 0.00 | 52 | 1017.4 |
| 20260903181032 | 30 | 219 | 3.2 | 8.0 | 0.00 | 0.00 | 0.00 | 52 | 1017.5 |
| 20260903180532 | 29 | 219 | 3.2 | 8.0 | 0.00 | 0.00 | 0.00 | 51 | 1017.5 |
| 20260903180039 | 30 | 219 | 3.2 | 8.0 | 0.00 | 0.00 | 0.00 | 52 | 1017.5 |
| 20260903175521 | 29 | 72 | 3.2 | 9.7 | 0.00 | 0.00 | 0.00 | 55 | 1017.7 |
| 20260903175016 | 29 | 72 | 4.8 | 12.9 | 0.00 | 0.00 | 0.00 | 55 | 1017.6 |
| 20260903174532 | 29 | 72 | 3.2 | 12.9 | 0.00 | 0.00 | 0.00 | 56 | 1017.7 |
| 20260903174028 | 28 | 69 | 3.2 | 11.3 | 0.00 | 0.00 | 0.00 | 56 | 1017.6 |
| 20260903173524 | 28 | 66 | 6.4 | 11.3 | 0.00 | 0.00 | 0.00 | 57 | 1017.7 |
| 20260903173024 | 29 | 102 | 4.8 | 9.7 | 0.00 | 0.00 | 0.00 | 56 | 1017.7 |
| 20260903172520 | 30 | 69 | 4.8 | 9.7 | 0.00 | 0.00 | 0.00 | 57 | 1017.8 |
| 20260903172016 | 28 | 113 | 4.8 | 6.4 | 0.00 | 0.00 | 0.00 | 56 | 1017.8 |
| 20260903171532 | 28 | 105 | 3.2 | 9.7 | 0.00 | 0.00 | 0.00 | 59 | 1017.7 |
| 20260903171028 | 28 | 108 | 4.8 | 9.7 | 0.00 | 0.00 | 0.00 | 60 | 1017.7 |
| 20260903170524 | 28 | 212 | 1.6 | 4.8 | 0.00 | 0.00 | 0.00 | 60 | 1017.8 |
| 20260903170033 | 28 | 145 | 1.6 | 8.0 | 0.00 | 0.00 | 0.00 | 61 | 1017.8 |
| 20260903165518 | 27 | 154 | 4.8 | 8.0 | 0.00 | 0.00 | 0.00 | 60 | 1017.7 |
| 20260903165015 | 27 | 286 | 3.2 | 6.4 | 0.00 | 0.00 | 0.00 | 59 | 1017.7 |
| 20260903164530 | 27 | 304 | 3.2 | 6.4 | 0.00 | 0.00 | 0.00 | 60 | 1017.7 |
| 20260903164026 | 27 | 295 | 3.2 | 6.4 | 0.00 | 0.00 | 0.00 | 61 | 1017.7 |
| 20260903163522 | 27 | 295 | 3.2 | 6.4 | 0.00 | 0.00 | 0.00 | 61 | 1017.7 |
| 20260903163018 | 27 | 297 | 3.2 | 6.4 | 0.00 | 0.00 | 0.00 | 64 | 1017.7 |
| 20260903162514 | 27 | 297 | 3.2 | 4.8 | 0.00 | 0.00 | 0.00 | 63 | 1017.7 |
| 20260903162014 | 27 | 298 | 3.2 | 4.8 | 0.00 | 0.00 | 0.00 | 63 | 1017.8 |
| 20260903161529 | 27 | 298 | 1.6 | 4.8 | 0.00 | 0.00 | 0.00 | 62 | 1017.9 |
| 20260903161025 | 27 | 298 | 1.6 | 8.0 | 0.00 | 0.00 | 0.00 | 62 | 1017.9 |
| 20260903160520 | 27 | 298 | 4.8 | 8.0 | 0.00 | 0.00 | 0.00 | 63 | 1017.8 |
| 20260903160047 | 27 | 298 | 3.2 | 6.4 | 0.00 | 0.00 | 0.00 | 62 | 1017.7 |
| 20260903155526 | 27 | 298 | 1.6 | 4.8 | 0.00 | 0.00 | 0.00 | 63 | 1017.7 |
| 20260903155022 | 27 | 298 | 1.6 | 4.8 | 0.00 | 0.00 | 0.00 | 62 | 1017.8 |
| 20260903154518 | 26 | 298 | 1.6 | 4.8 | 0.00 | 0.00 | 0.00 | 63 | 1017.8 |
| 20260903154018 | 26 | 298 | 3.2 | 4.8 | 0.00 | 0.00 | 0.00 | 65 | 1017.7 |
| 20260903153514 | 26 | 347 | 1.6 | 3.2 | 0.00 | 0.00 | 0.00 | 65 | 1017.7 |
| 20260903153030 | 26 | 347 | 1.6 | 3.2 | 0.00 | 0.00 | 0.00 | 65 | 1017.7 |
| 20260903152526 | 26 | 347 | 0.0 | 3.2 | 0.00 | 0.00 | 0.00 | 64 | 1017.6 |
| 20260903152022 | 26 | 347 | 0.0 | 3.2 | 0.00 | 0.00 | 0.00 | 66 | 1017.7 |
| 20260903151518 | 26 | 347 | 1.6 | 3.2 | 0.00 | 0.00 | 0.00 | 64 | 1017.8 |
| 20260903151014 | 26 | 347 | 1.6 | 4.8 | 0.00 | 0.00 | 0.00 | 66 | 1017.8 |
| 20260903150514 | 26 | 347 | 3.2 | 4.8 | 0.00 | 0.00 | 0.00 | 65 | 1017.8 |
| 20260903150042 | 26 | 347 | 3.2 | 4.8 | 0.00 | 0.00 | 0.00 | 66 | 1017.9 |
| 20260903145524 | 26 | 347 | 0.0 | 3.2 | 0.00 | 0.00 | 0.00 | 67 | 1017.7 |
| 20260903145021 | 26 | 347 | 1.6 | 6.4 | 0.00 | 0.00 | 0.00 | 67 | 1017.8 |
| 20260903144517 | 25 | 347 | 1.6 | 6.4 | 0.00 | 0.00 | 0.00 | 68 | 1017.9 |
| 20260903144014 | 26 | 347 | 0.0 | 6.4 | 0.00 | 0.00 | 0.00 | 69 | 1017.9 |
| 20260903143531 | 26 | 347 | 1.6 | 4.8 | 0.00 | 0.00 | 0.00 | 69 | 1017.8 |
| 20260903143031 | 25 | 348 | 1.6 | 4.8 | 0.00 | 0.00 | 0.00 | 69 | 1017.8 |
| 20260903142527 | 25 | 347 | 1.6 | 4.8 | 0.00 | 0.00 | 0.00 | 68 | 1017.8 |
| 20260903141526 | 25 | 347 | 1.6 | 4.8 | 0.00 | 0.00 | 0.00 | 65 | 1017.8 |
| 20260903141022 | 25 | 350 | 1.6 | 4.8 | 0.00 | 0.00 | 0.00 | 66 | 1017.8 |
| 20260903140518 | 25 | 353 | 1.6 | 6.4 | 0.00 | 0.00 | 0.00 | 66 | 1017.9 |
| 20260903140045 | 25 | 354 | 1.6 | 9.7 | 0.00 | 0.00 | 0.00 | 66 | 1017.9 |
| 20260903135526 | 25 | 360 | 3.2 | 9.7 | 0.00 | 0.00 | 0.00 | 66 | 1017.7 |
| 20260903135022 | 25 | 331 | 3.2 | 11.3 | 0.00 | 0.00 | 0.00 | 64 | 1017.7 |
| 20260903134522 | 26 | 358 | 4.8 | 11.3 | 0.00 | 0.00 | 0.00 | 64 | 1017.6 |
| 20260903134018 | 26 | 355 | 3.2 | 8.0 | 0.00 | 0.00 | 0.00 | 63 | 1017.5 |
| 20260903133514 | 26 | 354 | 3.2 | 6.4 | 0.00 | 0.00 | 0.00 | 63 | 1017.3 |
| 20260903133030 | 26 | 354 | 0.0 | 4.8 | 0.00 | 0.00 | 0.00 | 63 | 1017.2 |
| 20260903132526 | 26 | 354 | 1.6 | 4.8 | 0.00 | 0.00 | 0.00 | 61 | 1017.3 |
| 20260903132022 | 26 | 354 | 1.6 | 4.8 | 0.00 | 0.00 | 0.00 | 61 | 1017.2 |
| 20260903131518 | 26 | 354 | 0.0 | 3.2 | 0.00 | 0.00 | 0.00 | 63 | 1017.2 |
| 20260903131018 | 26 | 354 | 1.6 | 9.7 | 0.00 | 0.00 | 0.00 | 62 | 1017.0 |
| 20260903130514 | 26 | 354 | 3.2 | 16.1 | 0.00 | 0.00 | 0.00 | 61 | 1017.0 |
| 20260903130042 | 26 | 290 | 3.2 | 17.7 | 0.00 | 0.00 | 0.00 | 62 | 1016.9 |
| 20260903125524 | 26 | 272 | 9.7 | 17.7 | 0.00 | 0.00 | 0.00 | 62 | 1016.9 |
| 20260903125020 | 26 | 285 | 3.2 | 17.7 | 0.00 | 0.00 | 0.00 | 62 | 1016.9 |
| 20260903124516 | 26 | 256 | 11.3 | 17.7 | 0.00 | 0.00 | 0.00 | 64 | 1016.8 |
| 20260903124032 | 26 | 265 | 4.8 | 17.7 | 0.00 | 0.00 | 0.00 | 64 | 1016.7 |
| 20260903123532 | 26 | 277 | 4.8 | 17.7 | 0.00 | 0.00 | 0.00 | 62 | 1016.6 |
| 20260903123028 | 26 | 267 | 6.4 | 16.1 | 0.00 | 0.00 | 0.00 | 62 | 1016.7 |
| 20260903122524 | 26 | 225 | 3.2 | 6.4 | 0.00 | 0.00 | 0.00 | 64 | 1016.5 |
| 20260903122020 | 26 | 169 | 0.0 | 6.4 | 0.00 | 0.00 | 0.00 | 69 | 1016.6 |
| 20260903121516 | 26 | 169 | 0.0 | 8.0 | 0.00 | 0.00 | 0.00 | 69 | 1016.5 |
| 20260903121031 | 26 | 143 | 3.2 | 8.0 | 0.00 | 0.00 | 0.00 | 69 | 1016.6 |
| 20260903120527 | 26 | 114 | 4.8 | 6.4 | 0.00 | 0.00 | 0.00 | 70 | 1016.6 |
| 20260903120038 | 26 | 113 | 3.2 | 4.8 | 0.00 | 0.00 | 0.00 | 70 | 1016.5 |
| 20260903115520 | 26 | 113 | 1.6 | 4.8 | 0.00 | 0.00 | 0.00 | 70 | 1016.4 |
| 20260903115016 | 26 | 113 | 1.6 | 3.2 | 0.00 | 0.00 | 0.00 | 69 | 1016.4 |
| 20260903114532 | 26 | 113 | 1.6 | 1.6 | 0.00 | 0.00 | 0.00 | 69 | 1016.3 |
| 20260903114028 | 26 | 113 | 0.0 | 3.2 | 0.00 | 0.00 | 0.00 | 68 | 1016.3 |
| 20260903113524 | 26 | 113 | 1.6 | 3.2 | 0.00 | 0.00 | 0.00 | 68 | 1016.3 |
| 20260903113020 | 26 | 113 | 1.6 | 4.8 | 0.00 | 0.00 | 0.00 | 68 | 1016.3 |
| 20260903112519 | 26 | 113 | 3.2 | 4.8 | 0.00 | 0.00 | 0.00 | 68 | 1016.3 |
| 20260903112016 | 26 | 113 | 3.2 | 4.8 | 0.00 | 0.00 | 0.00 | 68 | 1016.3 |
| 20260903111531 | 26 | 114 | 3.2 | 6.4 | 0.00 | 0.00 | 0.00 | 68 | 1016.3 |
| 20260903111027 | 26 | 115 | 4.8 | 6.4 | 0.00 | 0.00 | 0.00 | 69 | 1016.3 |
| 20260903110523 | 26 | 115 | 3.2 | 6.4 | 0.00 | 0.00 | 0.00 | 69 | 1016.3 |
| 20260903110032 | 26 | 115 | 3.2 | 6.4 | 0.00 | 0.00 | 0.00 | 69 | 1016.2 |
| 20260903105513 | 26 | 117 | 3.2 | 8.0 | 0.00 | 0.00 | 0.00 | 69 | 1016.2 |
| 20260903105013 | 26 | 122 | 1.6 | 8.0 | 0.00 | 0.00 | 0.00 | 70 | 1016.3 |
| 20260903104529 | 26 | 122 | 4.8 | 8.0 | 0.00 | 0.00 | 0.00 | 69 | 1016.3 |
| 20260903104025 | 26 | 126 | 4.8 | 6.4 | 0.00 | 0.00 | 0.00 | 70 | 1016.3 |
| 20260903103521 | 26 | 127 | 3.2 | 4.8 | 0.00 | 0.00 | 0.00 | 70 | 1016.3 |
| 20260903103017 | 26 | 127 | 1.6 | 4.8 | 0.00 | 0.00 | 0.00 | 70 | 1016.4 |
| 20260903102513 | 26 | 127 | 3.2 | 6.4 | 0.00 | 0.00 | 0.00 | 69 | 1016.4 |
| 20260903102029 | 26 | 127 | 3.2 | 6.4 | 0.00 | 0.00 | 0.00 | 69 | 1016.3 |
| 20260903101524 | 26 | 127 | 1.6 | 4.8 | 0.00 | 0.00 | 0.00 | 69 | 1016.5 |
| 20260903101024 | 26 | 127 | 1.6 | 8.0 | 0.00 | 0.00 | 0.00 | 69 | 1016.4 |
| 20260903100520 | 26 | 127 | 3.2 | 8.0 | 0.00 | 0.00 | 0.00 | 69 | 1016.4 |
| 20260903100028 | 26 | 127 | 4.8 | 8.0 | 0.00 | 0.00 | 0.00 | 69 | 1016.5 |
| 20260903095530 | 26 | 127 | 3.2 | 6.4 | 0.00 | 0.00 | 0.00 | 69 | 1016.5 |
| 20260903095026 | 26 | 126 | 3.2 | 6.4 | 0.00 | 0.00 | 0.00 | 68 | 1016.5 |
| 20260903094522 | 26 | 127 | 3.2 | 6.4 | 0.00 | 0.00 | 0.00 | 68 | 1016.5 |
| 20260903094018 | 26 | 127 | 3.2 | 8.0 | 0.00 | 0.00 | 0.00 | 68 | 1016.4 |
| 20260903093518 | 27 | 126 | 3.2 | 6.4 | 0.00 | 0.00 | 0.00 | 68 | 1016.5 |
| 20260903093014 | 27 | 126 | 1.6 | 4.8 | 0.00 | 0.00 | 0.00 | 67 | 1016.5 |
| 20260903092530 | 27 | 126 | 1.6 | 4.8 | 0.00 | 0.00 | 0.00 | 66 | 1016.5 |
| 20260903092025 | 27 | 126 | 1.6 | 1.6 | 0.00 | 0.00 | 0.00 | 66 | 1016.4 |
| 20260903091520 | 27 | 126 | 0.0 | 1.6 | 0.00 | 0.00 | 0.00 | 65 | 1016.4 |
| 20260903091017 | 27 | 126 | 1.6 | 1.6 | 0.00 | 0.00 | 0.00 | 64 | 1016.4 |
| 20260903090512 | 27 | 126 | 0.0 | 0.0 | 0.00 | 0.00 | 0.00 | 65 | 1016.4 |
| 20260903090044 | 27 | 126 | 0.0 | 1.6 | 0.00 | 0.00 | 0.00 | 66 | 1016.5 |
| 20260903085526 | 27 | 126 | 0.0 | 1.6 | 0.00 | 0.00 | 0.00 | 64 | 1016.5 |
| 20260903085022 | 27 | 126 | 1.6 | 1.6 | 0.00 | 0.00 | 0.00 | 65 | 1016.5 |
| 20260903084517 | 27 | 126 | 0.0 | 1.6 | 0.00 | 0.00 | 0.00 | 64 | 1016.7 |
| 20260903084013 | 27 | 126 | 0.0 | 1.6 | 0.00 | 0.00 | 0.00 | 62 | 1016.7 |
| 20260903083529 | 27 | 126 | 0.0 | 1.6 | 0.00 | 0.00 | 0.00 | 63 | 1016.6 |
| 20260903083024 | 27 | 126 | 0.0 | 1.6 | 0.00 | 0.00 | 0.00 | 62 | 1016.6 |
| 20260903082524 | 27 | 126 | 0.0 | 1.6 | 0.00 | 0.00 | 0.00 | 62 | 1016.6 |
| 20260903082020 | 27 | 126 | 1.6 | 1.6 | 0.00 | 0.00 | 0.00 | 61 | 1016.6 |
| 20260903081515 | 27 | 126 | 0.0 | 1.6 | 0.00 | 0.00 | 0.00 | 62 | 1016.7 |
| 20260903081031 | 27 | 126 | 0.0 | 1.6 | 0.00 | 0.00 | 0.00 | 61 | 1016.6 |
| 20260903080527 | 27 | 126 | 1.6 | 1.6 | 0.00 | 0.00 | 0.00 | 61 | 1016.7 |
| 20260903080034 | 27 | 126 | 0.0 | 1.6 | 0.00 | 0.00 | 0.00 | 63 | 1016.7 |
| 20260903075515 | 27 | 126 | 0.0 | 4.8 | 0.00 | 0.00 | 0.00 | 62 | 1016.8 |
| 20260903075015 | 27 | 126 | 0.0 | 4.8 | 0.00 | 0.00 | 0.00 | 63 | 1016.7 |
| 20260903074531 | 27 | 126 | 1.6 | 3.2 | 0.00 | 0.00 | 0.00 | 61 | 1016.7 |
| 20260903074027 | 27 | 126 | 1.6 | 3.2 | 0.00 | 0.00 | 0.00 | 61 | 1016.8 |
| 20260903073522 | 27 | 126 | 0.0 | 3.2 | 0.00 | 0.00 | 0.00 | 59 | 1016.7 |
| 20260903073018 | 28 | 126 | 1.6 | 3.2 | 0.00 | 0.00 | 0.00 | 58 | 1016.8 |
| 20260903072514 | 27 | 126 | 0.0 | 1.6 | 0.00 | 0.00 | 0.00 | 60 | 1016.8 |
| 20260903072030 | 27 | 126 | 0.0 | 3.2 | 0.00 | 0.00 | 0.00 | 62 | 1016.8 |
| 20260903071526 | 27 | 126 | 0.0 | 4.8 | 0.00 | 0.00 | 0.00 | 62 | 1016.8 |
| 20260903071025 | 27 | 126 | 1.6 | 4.8 | 0.00 | 0.00 | 0.00 | 61 | 1016.7 |
| 20260903070521 | 27 | 126 | 1.6 | 3.2 | 0.00 | 0.00 | 0.00 | 61 | 1016.6 |
| 20260903070030 | 27 | 126 | 0.0 | 3.2 | 0.00 | 0.00 | 0.00 | 59 | 1016.5 |
| 20260903065531 | 27 | 126 | 0.0 | 3.2 | 0.00 | 0.00 | 0.00 | 61 | 1016.6 |
| 20260903065026 | 27 | 126 | 1.6 | 3.2 | 0.00 | 0.00 | 0.00 | 61 | 1016.5 |
| 20260903064522 | 27 | 126 | 0.0 | 3.2 | 0.00 | 0.00 | 0.00 | 61 | 1016.4 |
| 20260903064017 | 27 | 126 | 1.6 | 3.2 | 0.00 | 0.00 | 0.00 | 60 | 1016.4 |
| 20260903063517 | 28 | 126 | 1.6 | 3.2 | 0.00 | 0.00 | 0.00 | 60 | 1016.3 |
| 20260903063013 | 27 | 126 | 0.0 | 1.6 | 0.00 | 0.00 | 0.00 | 61 | 1016.4 |
| 20260903062529 | 27 | 126 | 0.0 | 1.6 | 0.00 | 0.00 | 0.00 | 61 | 1016.6 |
| 20260903062025 | 28 | 126 | 1.6 | 1.6 | 0.00 | 0.00 | 0.00 | 59 | 1016.5 |
| 20260903061520 | 27 | 126 | 0.0 | 3.2 | 0.00 | 0.00 | 0.00 | 61 | 1016.5 |
| 20260903061016 | 28 | 126 | 0.0 | 3.2 | 0.00 | 0.00 | 0.00 | 60 | 1016.6 |